#timestamp,LO_Frequency,Hit,StdDev 
1552550415.2,286046994.6,N
1552550435.1,286046994.5,N
1552550436.0,286046994.5,N
1552550455.8,286046996.2,N
1552550475.7,286046995.1,N
1552550495.5,286046999.5,N
1552550515.3,286046996.3,N
1552550535.2,286046992.7,N
1552550555.9,286046989.6,Y
1552550575.7,286046989.3,P
1552550595.6,286046988.3,N
1552550615.4,286046984.1,P
1552550635.3,286046984.9,Y
1552550655.1,286046996.2,P
1552550656.0,286046996.2,N
1552550675.8,286046995.5,N
1552550695.7,286046995.2,N
1552550715.5,286046999.6,N
1552550735.3,286046998.8,N
1552550755.2,286046998.7,N
1552550775.0,286046999.3,N
1552550775.9,286046999.3,N
1552550795.8,286046996.6,N
1552550815.6,286046999.1,N
1552550835.4,286046997.3,N
1552550855.3,286046999.0,N
1552550875.1,286047000.1,N
1552550895.8,286047000.1,N
1552550915.7,286047002.0,N
1552550935.5,286047000.3,N
1552550955.3,286047002.5,N
1552550975.2,286046999.7,N
1552550995.0,286047000.0,N
1552550995.9,286047000.0,N
1552551015.8,286046999.7,N
1552551035.6,286047001.3,N
1552551055.4,286047005.7,N
1552551075.3,286047006.6,N
1552551095.1,286047008.0,N
1552551115.8,286047008.9,N
1552551135.7,286047010.8,N
1552551155.5,286047009.3,N
1552551175.4,286047009.7,N
1552551195.2,286047009.6,N
1552551215.0,286047009.6,N
1552551215.9,286047009.6,N
1552551235.8,286047011.3,N
1552551255.6,286047012.5,N
1552551275.4,286047014.4,N
1552551295.3,286047013.0,N
1552551315.1,286047011.2,N
1552551335.9,286047013.4,N
1552551355.7,286047013.3,N
1552551375.5,286047012.9,N
1552551395.4,286047013.5,N
1552551415.2,286047013.5,N
1552551435.0,286047011.2,N
1552551466.0,286047011.4,E
1552551475.9,286047006.8,N
1552551495.7,286047000.7,P
1552551515.5,286046999.3,N
1552551535.4,286046997.5,N
1552551555.2,286046997.2,N
1552551575.1,286046995.5,N
1552551576.0,286046995.5,N
1552551595.8,286046995.0,N
1552551615.6,286046996.5,N
1552551635.5,286046997.1,N
1552551655.3,286046994.9,N
1552551675.1,286046998.0,N
1552551695.9,286046997.9,N
1552551715.7,286046999.6,N
1552551735.6,286046999.4,N
1552551755.4,286046997.0,N
1552551775.2,286046995.0,N
1552551795.1,286046999.1,N
1552551796.0,286046999.1,N
1552551815.8,286046999.5,N
1552551835.6,286046997.6,N
1552551855.5,286046999.2,N
1552551875.3,286047002.5,N
1552551895.2,286047002.7,N
1552551915.9,286047000.8,N
1552551935.7,286046999.7,N
1552551955.6,286047001.0,N
1552551975.4,286047002.5,N
1552551995.2,286047002.2,N
1552552015.1,286047004.1,N
1552552016.0,286047004.1,N
1552552035.8,286047003.9,N
1552552055.6,286047003.8,N
1552552075.5,286047005.8,N
1552552095.3,286047007.6,N
1552552115.2,286047007.2,N
1552552135.9,286047006.8,N
1552552155.7,286047010.5,N
1552552175.6,286047009.0,N
1552552195.4,286047005.7,N
1552552215.2,286047004.1,N
1552552235.1,286047001.7,N
1552552236.0,286047001.7,N
1552552255.8,286047005.5,N
1552552275.7,286047005.3,N
1552552295.5,286047006.6,N
1552552315.3,286047010.4,N
1552552335.2,286047009.3,N
1552552355.0,286047014.0,Y
1552552355.9,286047014.0,P
1552552375.7,286047007.1,N
1552552395.6,286047005.8,N
1552552415.4,286047000.2,N
1552552435.3,286046997.0,N
1552552455.1,286046995.0,N
1552552456.0,286046995.0,N
1552552475.8,286046994.0,N
1552552495.7,286046988.8,N
1552552515.5,286046985.6,N
1552552535.3,286046986.6,N
1552552555.2,286046984.7,N
1552552575.0,286046982.6,N
1552552575.9,286046982.6,N
1552552595.8,286046983.3,N
1552552615.6,286046982.8,N
1552552635.4,286046983.3,N
1552552655.3,286046983.7,N
1552552675.1,286046986.5,N
1552552695.8,286046988.5,N
1552552715.7,286046990.6,N
1552552735.5,286046994.5,N
1552552755.4,286046995.9,N
1552552775.2,286046999.3,N
1552552795.0,286046998.5,N
1552552795.9,286046998.5,N
1552552815.8,286046999.2,N
1552552835.6,286046998.8,N
1552552855.4,286046998.3,N
1552552875.3,286046999.0,N
1552552895.1,286046999.5,N
1552552915.8,286046997.8,N
1552552935.7,286046997.6,N
1552552955.5,286046995.8,N
1552552975.4,286046995.1,N
1552552995.2,286046996.0,N
1552553015.0,286046995.6,N
1552553015.9,286046995.6,N
1552553035.8,286046991.8,N
1552553055.6,286046994.1,N
1552553075.4,286046997.9,N
1552553095.3,286046993.6,N
1552553115.1,286046994.7,N
1552553135.9,286046994.7,N
1552553155.7,286046991.7,N
1552553175.5,286046994.2,N
1552553195.4,286046996.1,N
1552553215.2,286046994.9,N
1552553235.0,286046997.2,N
1552553235.9,286046997.2,N
1552553255.8,286046997.7,N
1552553275.6,286046997.6,N
1552553295.4,286046997.2,N
1552553315.3,286046997.0,N
1552553335.1,286046997.2,N
1552553355.9,286046997.6,N
1552553375.7,286046997.5,N
1552553395.5,286046997.1,N
1552553415.4,286046995.2,N
1552553435.2,286046999.2,N
1552553455.0,286046999.1,N
1552553455.9,286046999.1,N
1552553475.8,286046998.6,N
1552553495.6,286047002.1,N
1552553515.5,286047003.9,N
1552553535.3,286047003.7,N
1552553555.1,286047006.0,N
1552553575.9,286047004.0,N
1552553595.7,286046999.9,N
1552553615.5,286047002.1,N
1552553635.4,286047002.4,N
1552553655.2,286047000.5,N
1552553675.0,286047000.0,N
1552553676.0,286047000.0,N
1552553695.8,286047001.2,N
1552553715.6,286046998.7,N
1552553735.5,286046999.5,N
1552553755.3,286046994.9,N
1552553775.1,286046996.7,N
1552553795.9,286046999.4,N
1552553815.7,286046998.9,N
1552553835.5,286046997.1,N
1552553855.4,286047000.9,N
1552553875.2,286046998.2,N
1552553895.1,286047001.0,N
1552553896.0,286047001.0,N
1552553915.8,286046998.4,N
1552553935.6,286046996.5,N
1552553955.5,286046999.2,N
1552553975.3,286046999.0,N
1552553995.1,286047002.8,N
